Year,Month,Day,Hour,Minute,Value (Times are PST for temperature in C)
2010,05,04,00,00,3.70
2010,05,04,00,01,3.70
2010,05,04,00,02,3.70
2010,05,04,00,03,3.70
2010,05,04,00,04,3.70
2010,05,04,00,05,3.70
2010,05,04,00,06,3.80
2010,05,04,00,07,3.80
2010,05,04,00,08,3.80
2010,05,04,00,09,3.80
2010,05,04,00,10,3.90
2010,05,04,00,11,3.90
2010,05,04,00,12,3.90
2010,05,04,00,13,3.90
2010,05,04,00,14,4.10
2010,05,04,00,15,4.30
2010,05,04,00,16,4.40
2010,05,04,00,17,4.50
2010,05,04,00,18,4.60
2010,05,04,00,19,4.70
2010,05,04,00,20,4.70
2010,05,04,00,21,4.80
2010,05,04,00,22,4.80
2010,05,04,00,23,4.80
2010,05,04,00,24,4.90
2010,05,04,00,25,4.90
2010,05,04,00,26,5.00
2010,05,04,00,27,5.10
2010,05,04,00,28,5.10
2010,05,04,00,29,5.20
2010,05,04,00,30,5.30
2010,05,04,00,31,5.30
2010,05,04,00,32,5.40
2010,05,04,00,33,5.40
2010,05,04,00,34,5.40
2010,05,04,00,35,5.40
2010,05,04,00,36,5.40
2010,05,04,00,37,5.40
2010,05,04,00,38,5.40
2010,05,04,00,39,5.40
2010,05,04,00,40,5.40
2010,05,04,00,41,5.50
2010,05,04,00,42,5.50
2010,05,04,00,43,5.50
2010,05,04,00,44,5.60
2010,05,04,00,45,5.60
2010,05,04,00,46,5.60
2010,05,04,00,47,5.60
2010,05,04,00,48,5.60
2010,05,04,00,49,5.60
2010,05,04,00,50,5.60
2010,05,04,00,51,5.60
2010,05,04,00,52,5.60
2010,05,04,00,53,5.60
2010,05,04,00,54,5.60
2010,05,04,00,55,5.70
2010,05,04,00,56,5.70
2010,05,04,00,57,5.70
2010,05,04,00,58,5.70
2010,05,04,00,59,5.80
2010,05,04,01,00,5.80
2010,05,04,01,01,5.80
2010,05,04,01,02,5.80
2010,05,04,01,03,5.80
2010,05,04,01,04,5.80
2010,05,04,01,05,5.80
2010,05,04,01,06,5.80
2010,05,04,01,07,5.80
2010,05,04,01,08,5.80
2010,05,04,01,09,5.80
2010,05,04,01,10,5.80
2010,05,04,01,11,5.80
2010,05,04,01,12,5.80
2010,05,04,01,13,5.80
2010,05,04,01,14,5.80
2010,05,04,01,15,5.80
2010,05,04,01,16,5.80
2010,05,04,01,17,5.80
2010,05,04,01,18,5.80
2010,05,04,01,19,5.80
2010,05,04,01,20,5.80
2010,05,04,01,21,5.80
2010,05,04,01,22,5.70
2010,05,04,01,23,5.70
2010,05,04,01,24,5.70
2010,05,04,01,25,5.70
2010,05,04,01,26,5.70
2010,05,04,01,27,5.70
2010,05,04,01,28,5.70
2010,05,04,01,29,5.70
2010,05,04,01,30,5.70
2010,05,04,01,31,5.70
2010,05,04,01,32,5.70
2010,05,04,01,33,5.70
2010,05,04,01,34,5.70
2010,05,04,01,35,5.70
2010,05,04,01,36,5.70
2010,05,04,01,37,5.70
2010,05,04,01,38,5.60
2010,05,04,01,39,5.60
2010,05,04,01,40,5.60
2010,05,04,01,41,5.60
2010,05,04,01,42,5.60
2010,05,04,01,43,5.60
2010,05,04,01,44,5.60
2010,05,04,01,45,5.60
2010,05,04,01,46,5.60
2010,05,04,01,47,5.60
2010,05,04,01,48,5.60
2010,05,04,01,49,5.60
2010,05,04,01,50,5.60
2010,05,04,01,51,5.60
2010,05,04,01,52,5.60
2010,05,04,01,53,5.60
2010,05,04,01,54,5.60
2010,05,04,01,55,5.60
2010,05,04,01,56,5.60
2010,05,04,01,57,5.60
2010,05,04,01,58,5.60
2010,05,04,01,59,5.60
2010,05,04,02,00,5.60
2010,05,04,02,01,5.60
2010,05,04,02,02,5.60
2010,05,04,02,03,5.60
2010,05,04,02,04,5.60
2010,05,04,02,05,5.60
2010,05,04,02,06,5.60
2010,05,04,02,07,5.60
2010,05,04,02,08,5.60
2010,05,04,02,09,5.60
2010,05,04,02,10,5.60
2010,05,04,02,11,5.60
2010,05,04,02,12,5.60
2010,05,04,02,13,5.70
2010,05,04,02,14,5.70
2010,05,04,02,15,5.70
2010,05,04,02,16,5.70
2010,05,04,02,17,5.70
2010,05,04,02,18,5.60
2010,05,04,02,19,5.60
2010,05,04,02,20,5.60
2010,05,04,02,21,5.60
2010,05,04,02,22,5.60
2010,05,04,02,23,5.60
2010,05,04,02,24,5.60
2010,05,04,02,25,5.60
2010,05,04,02,26,5.60
2010,05,04,02,27,5.60
2010,05,04,02,28,5.60
2010,05,04,02,29,5.60
2010,05,04,02,30,5.50
2010,05,04,02,31,5.60
2010,05,04,02,32,5.60
2010,05,04,02,33,5.60
2010,05,04,02,34,5.60
2010,05,04,02,35,5.60
2010,05,04,02,36,5.60
2010,05,04,02,37,5.60
2010,05,04,02,38,5.60
2010,05,04,02,39,5.60
2010,05,04,02,40,5.60
2010,05,04,02,41,5.60
2010,05,04,02,42,5.60
2010,05,04,02,43,5.60
2010,05,04,02,44,5.60
2010,05,04,02,45,5.60
2010,05,04,02,46,5.60
2010,05,04,02,47,5.60
2010,05,04,02,48,5.60
2010,05,04,02,49,5.50
2010,05,04,02,50,5.50
2010,05,04,02,51,5.50
2010,05,04,02,52,5.40
2010,05,04,02,53,5.40
2010,05,04,02,54,5.30
2010,05,04,02,55,5.30
2010,05,04,02,56,5.30
2010,05,04,02,57,5.30
2010,05,04,02,58,5.20
2010,05,04,02,59,5.20
2010,05,04,03,00,5.20
2010,05,04,03,01,5.10
2010,05,04,03,02,5.10
2010,05,04,03,03,5.10
2010,05,04,03,04,5.10
2010,05,04,03,05,5.10
2010,05,04,03,06,5.10
2010,05,04,03,07,5.10
2010,05,04,03,08,5.10
2010,05,04,03,09,5.10
2010,05,04,03,10,5.10
2010,05,04,03,11,5.10
2010,05,04,03,12,5.10
2010,05,04,03,13,5.10
2010,05,04,03,14,5.10
2010,05,04,03,15,5.10
2010,05,04,03,16,5.00
2010,05,04,03,17,5.00
2010,05,04,03,18,4.90
2010,05,04,03,19,4.90
2010,05,04,03,20,4.90
2010,05,04,03,21,4.80
2010,05,04,03,22,4.80
2010,05,04,03,23,4.80
2010,05,04,03,24,4.70
2010,05,04,03,25,4.70
2010,05,04,03,26,4.70
2010,05,04,03,27,4.60
2010,05,04,03,28,4.60
2010,05,04,03,29,4.60
2010,05,04,03,30,4.60
2010,05,04,03,31,4.60
2010,05,04,03,32,4.70
2010,05,04,03,33,4.80
2010,05,04,03,34,4.80
2010,05,04,03,35,4.90
2010,05,04,03,36,4.90
2010,05,04,03,37,4.90
2010,05,04,03,38,4.90
2010,05,04,03,39,5.00
2010,05,04,03,40,5.00
2010,05,04,03,41,5.00
2010,05,04,03,42,5.10
2010,05,04,03,43,5.10
2010,05,04,03,44,5.10
2010,05,04,03,45,5.10
2010,05,04,03,46,5.10
2010,05,04,03,47,5.00
2010,05,04,03,48,5.00
2010,05,04,03,49,4.90
2010,05,04,03,50,4.90
2010,05,04,03,51,4.80
2010,05,04,03,52,4.80
2010,05,04,03,53,4.80
2010,05,04,03,54,4.70
2010,05,04,03,55,4.70
2010,05,04,03,56,4.60
2010,05,04,03,57,4.60
2010,05,04,03,58,4.50
2010,05,04,03,59,4.50
2010,05,04,04,00,4.40
2010,05,04,04,01,4.40
2010,05,04,04,02,4.40
2010,05,04,04,03,4.40
2010,05,04,04,04,4.30
2010,05,04,04,05,4.30
2010,05,04,04,06,4.30
2010,05,04,04,07,4.30
2010,05,04,04,08,4.30
2010,05,04,04,09,4.20
2010,05,04,04,10,4.20
2010,05,04,04,11,4.20
2010,05,04,04,12,4.10
2010,05,04,04,13,4.10
2010,05,04,04,14,4.00
2010,05,04,04,15,4.00
2010,05,04,04,16,4.00
2010,05,04,04,17,4.00
2010,05,04,04,18,4.00
2010,05,04,04,19,4.00
2010,05,04,04,20,4.00
2010,05,04,04,21,4.00
2010,05,04,04,22,4.10
2010,05,04,04,23,4.10
2010,05,04,04,24,4.10
2010,05,04,04,25,4.20
2010,05,04,04,26,4.20
2010,05,04,04,27,4.20
2010,05,04,04,28,4.20
2010,05,04,04,29,4.20
2010,05,04,04,30,4.20
2010,05,04,04,31,4.20
2010,05,04,04,32,4.20
2010,05,04,04,33,4.10
2010,05,04,04,34,4.10
2010,05,04,04,35,4.10
2010,05,04,04,36,4.00
2010,05,04,04,37,4.00
2010,05,04,04,38,3.90
2010,05,04,04,39,3.90
2010,05,04,04,40,3.80
2010,05,04,04,41,3.80
2010,05,04,04,42,3.80
2010,05,04,04,43,3.70
2010,05,04,04,44,3.70
2010,05,04,04,45,3.70
2010,05,04,04,46,3.60
2010,05,04,04,47,3.60
2010,05,04,04,48,3.50
2010,05,04,04,49,3.50
2010,05,04,04,50,3.40
2010,05,04,04,51,3.40
2010,05,04,04,52,3.30
2010,05,04,04,53,3.30
2010,05,04,04,54,3.20
2010,05,04,04,55,3.20
2010,05,04,04,56,3.10
2010,05,04,04,57,3.10
2010,05,04,04,58,3.00
2010,05,04,04,59,3.00
2010,05,04,05,00,3.00
2010,05,04,05,01,2.90
2010,05,04,05,02,2.90
2010,05,04,05,03,2.90
2010,05,04,05,04,2.80
2010,05,04,05,05,2.80
2010,05,04,05,06,2.80
2010,05,04,05,07,2.80
2010,05,04,05,08,2.80
2010,05,04,05,09,2.70
2010,05,04,05,10,2.70
2010,05,04,05,11,2.70
2010,05,04,05,12,2.60
2010,05,04,05,13,2.60
2010,05,04,05,14,2.60
2010,05,04,05,15,2.50
2010,05,04,05,16,2.50
2010,05,04,05,17,2.40
2010,05,04,05,18,2.40
2010,05,04,05,19,2.40
2010,05,04,05,20,2.30
2010,05,04,05,21,2.30
2010,05,04,05,22,2.30
2010,05,04,05,23,2.20
2010,05,04,05,24,2.20
2010,05,04,05,25,2.20
2010,05,04,05,26,2.20
2010,05,04,05,27,2.10
2010,05,04,05,28,2.10
2010,05,04,05,29,2.10
2010,05,04,05,30,2.10
2010,05,04,05,31,2.10
2010,05,04,05,32,2.00
2010,05,04,05,33,2.00
2010,05,04,05,34,2.00
2010,05,04,05,35,2.00
2010,05,04,05,36,2.00
2010,05,04,05,37,2.00
2010,05,04,05,38,1.90
2010,05,04,05,39,1.90
2010,05,04,05,40,1.90
2010,05,04,05,41,1.90
2010,05,04,05,42,1.90
2010,05,04,05,43,1.90
2010,05,04,05,44,1.90
2010,05,04,05,45,1.90
2010,05,04,05,46,1.90
2010,05,04,05,47,1.90
2010,05,04,05,48,1.90
2010,05,04,05,49,1.90
2010,05,04,05,50,1.80
2010,05,04,05,51,1.80
2010,05,04,05,52,1.80
2010,05,04,05,53,1.80
2010,05,04,05,54,1.80
2010,05,04,05,55,1.80
2010,05,04,05,56,1.80
2010,05,04,05,57,1.80
2010,05,04,05,58,1.70
2010,05,04,05,59,1.70
2010,05,04,06,00,1.70
2010,05,04,06,01,1.70
2010,05,04,06,02,1.70
2010,05,04,06,03,1.70
2010,05,04,06,04,1.70
2010,05,04,06,05,1.70
2010,05,04,06,06,1.70
2010,05,04,06,07,1.70
2010,05,04,06,08,1.70
2010,05,04,06,09,1.70
2010,05,04,06,10,1.70
2010,05,04,06,11,1.70
2010,05,04,06,12,1.70
2010,05,04,06,13,1.70
2010,05,04,06,14,1.70
2010,05,04,06,15,1.70
2010,05,04,06,16,1.70
2010,05,04,06,17,1.70
2010,05,04,06,18,1.70
2010,05,04,06,19,1.70
2010,05,04,06,20,1.70
2010,05,04,06,21,1.70
2010,05,04,06,22,1.70
2010,05,04,06,23,1.70
2010,05,04,06,24,1.70
2010,05,04,06,25,1.70
2010,05,04,06,26,1.70
2010,05,04,06,27,1.70
2010,05,04,06,28,1.70
2010,05,04,06,29,1.70
2010,05,04,06,30,1.80
2010,05,04,06,31,1.80
2010,05,04,06,32,1.80
2010,05,04,06,33,1.80
2010,05,04,06,34,1.80
2010,05,04,06,35,1.80
2010,05,04,06,36,1.90
2010,05,04,06,37,1.90
2010,05,04,06,38,1.90
2010,05,04,06,39,1.90
2010,05,04,06,40,1.90
2010,05,04,06,41,2.00
2010,05,04,06,42,2.00
2010,05,04,06,43,2.00
2010,05,04,06,44,2.10
2010,05,04,06,45,2.10
2010,05,04,06,46,2.10
2010,05,04,06,47,2.10
2010,05,04,06,48,2.20
2010,05,04,06,49,2.20
2010,05,04,06,50,2.20
2010,05,04,06,51,2.20
2010,05,04,06,52,2.20
2010,05,04,06,53,2.30
2010,05,04,06,54,2.30
2010,05,04,06,55,2.30
2010,05,04,06,56,2.30
2010,05,04,06,57,2.30
2010,05,04,06,58,2.30
2010,05,04,06,59,2.30
2010,05,04,07,00,2.30
2010,05,04,07,01,2.30
2010,05,04,07,02,2.40
2010,05,04,07,03,2.40
2010,05,04,07,04,2.40
2010,05,04,07,05,2.40
2010,05,04,07,06,2.50
2010,05,04,07,07,2.50
2010,05,04,07,08,2.60
2010,05,04,07,09,2.60
2010,05,04,07,10,2.70
2010,05,04,07,11,2.70
2010,05,04,07,12,2.80
2010,05,04,07,13,2.90
2010,05,04,07,14,2.90
2010,05,04,07,15,3.00
2010,05,04,07,16,3.10
2010,05,04,07,17,3.20
2010,05,04,07,18,3.20
2010,05,04,07,19,3.30
2010,05,04,07,20,3.50
2010,05,04,07,21,3.60
2010,05,04,07,22,3.70
2010,05,04,07,23,3.90
2010,05,04,07,24,4.00
2010,05,04,07,25,4.20
2010,05,04,07,26,4.40
2010,05,04,07,27,4.60
2010,05,04,07,28,4.80
2010,05,04,07,29,5.00
2010,05,04,07,30,5.10
2010,05,04,07,31,5.30
2010,05,04,07,32,5.50
2010,05,04,07,33,5.60
2010,05,04,07,34,5.70
2010,05,04,07,35,5.80
2010,05,04,07,36,6.00
2010,05,04,07,37,6.10
2010,05,04,07,38,6.20
2010,05,04,07,39,6.30
2010,05,04,07,40,6.30
2010,05,04,07,41,6.30
2010,05,04,07,42,6.40
2010,05,04,07,43,6.40
2010,05,04,07,44,6.40
2010,05,04,07,45,6.50
2010,05,04,07,46,6.50
2010,05,04,07,47,6.50
2010,05,04,07,48,6.50
2010,05,04,07,49,6.60
2010,05,04,07,50,6.60
2010,05,04,07,51,6.60
2010,05,04,07,52,6.70
2010,05,04,07,53,6.70
2010,05,04,07,54,6.70
2010,05,04,07,55,6.80
2010,05,04,07,56,6.80
2010,05,04,07,57,6.90
2010,05,04,07,58,6.90
2010,05,04,07,59,6.90
2010,05,04,08,00,7.00
2010,05,04,08,01,7.00
2010,05,04,08,02,7.00
2010,05,04,08,03,7.00
2010,05,04,08,04,7.00
2010,05,04,08,05,7.00
2010,05,04,08,06,7.10
2010,05,04,08,07,7.10
2010,05,04,08,08,7.10
2010,05,04,08,09,7.10
2010,05,04,08,10,7.20
2010,05,04,08,11,7.20
2010,05,04,08,12,7.20
2010,05,04,08,13,7.20
2010,05,04,08,14,7.20
2010,05,04,08,15,7.20
2010,05,04,08,16,7.20
2010,05,04,08,17,7.20
2010,05,04,08,18,7.20
2010,05,04,08,19,7.40
2010,05,04,08,20,7.50
2010,05,04,08,21,7.50
2010,05,04,08,22,7.50
2010,05,04,08,23,7.60
2010,05,04,08,24,7.70
2010,05,04,08,25,7.70
2010,05,04,08,26,7.70
2010,05,04,08,27,7.60
2010,05,04,08,28,7.60
2010,05,04,08,29,7.60
2010,05,04,08,30,7.60
2010,05,04,08,31,7.60
2010,05,04,08,32,7.60
2010,05,04,08,33,7.60
2010,05,04,08,34,7.60
2010,05,04,08,35,7.70
2010,05,04,08,36,7.70
2010,05,04,08,37,7.80
2010,05,04,08,38,7.90
2010,05,04,08,39,7.90
2010,05,04,08,40,8.00
2010,05,04,08,41,8.10
2010,05,04,08,42,8.10
2010,05,04,08,43,8.20
2010,05,04,08,44,8.20
2010,05,04,08,45,8.30
2010,05,04,08,46,8.30
2010,05,04,08,47,8.20
2010,05,04,08,48,8.10
2010,05,04,08,49,8.10
2010,05,04,08,50,8.10
2010,05,04,08,51,8.00
2010,05,04,08,52,8.10
2010,05,04,08,53,8.20
2010,05,04,08,54,8.30
2010,05,04,08,55,8.30
2010,05,04,08,56,8.30
2010,05,04,08,57,8.20
2010,05,04,08,58,8.20
2010,05,04,08,59,8.20
2010,05,04,09,00,8.20
2010,05,04,09,01,8.10
2010,05,04,09,02,7.80
2010,05,04,09,03,7.70
2010,05,04,09,04,7.70
2010,05,04,09,05,7.70
2010,05,04,09,06,7.70
2010,05,04,09,07,7.80
2010,05,04,09,08,7.90
2010,05,04,09,09,8.00
2010,05,04,09,10,8.10
2010,05,04,09,11,8.10
2010,05,04,09,12,8.10
2010,05,04,09,13,8.10
2010,05,04,09,14,8.10
2010,05,04,09,15,8.10
2010,05,04,09,16,8.10
2010,05,04,09,17,8.00
2010,05,04,09,18,8.10
2010,05,04,09,19,8.10
2010,05,04,09,20,8.10
2010,05,04,09,21,8.10
2010,05,04,09,22,8.10
2010,05,04,09,23,8.10
2010,05,04,09,24,8.00
2010,05,04,09,25,8.00
2010,05,04,09,26,8.00
2010,05,04,09,27,7.90
2010,05,04,09,28,7.90
2010,05,04,09,29,7.90
2010,05,04,09,30,7.80
2010,05,04,09,31,7.80
2010,05,04,09,32,7.80
2010,05,04,09,33,7.80
2010,05,04,09,34,7.70
2010,05,04,09,35,7.70
2010,05,04,09,36,7.70
2010,05,04,09,37,7.70
2010,05,04,09,38,7.70
2010,05,04,09,39,7.70
2010,05,04,09,40,7.70
2010,05,04,09,41,7.70
2010,05,04,09,42,7.70
2010,05,04,09,43,7.70
2010,05,04,09,44,7.60
2010,05,04,09,45,7.70
2010,05,04,09,46,7.70
2010,05,04,09,47,7.80
2010,05,04,09,48,7.90
2010,05,04,09,49,8.00
2010,05,04,09,50,8.10
2010,05,04,09,51,8.30
2010,05,04,09,52,8.40
2010,05,04,09,53,8.50
2010,05,04,09,54,8.60
2010,05,04,09,55,8.70
2010,05,04,09,56,8.70
2010,05,04,09,57,8.70
2010,05,04,09,58,8.70
2010,05,04,09,59,8.70
2010,05,04,10,00,8.70
2010,05,04,10,01,8.70
2010,05,04,10,02,8.70
2010,05,04,10,03,8.70
2010,05,04,10,04,8.70
2010,05,04,10,05,8.70
2010,05,04,10,06,8.60
2010,05,04,10,07,8.50
2010,05,04,10,08,8.50
2010,05,04,10,09,8.50
2010,05,04,10,10,8.50
2010,05,04,10,11,8.60
2010,05,04,10,12,8.70
2010,05,04,10,13,8.70
2010,05,04,10,14,8.70
2010,05,04,10,15,8.70
2010,05,04,10,16,8.70
2010,05,04,10,17,8.70
2010,05,04,10,18,8.70
2010,05,04,10,19,8.80
2010,05,04,10,20,8.80
2010,05,04,10,21,8.80
2010,05,04,10,22,8.90
2010,05,04,10,23,8.80
2010,05,04,10,24,8.80
2010,05,04,10,25,8.70
2010,05,04,10,26,8.60
2010,05,04,10,27,8.50
2010,05,04,10,28,8.50
2010,05,04,10,29,8.50
2010,05,04,10,30,8.50
2010,05,04,10,31,8.50
2010,05,04,10,32,8.60
2010,05,04,10,33,8.60
2010,05,04,10,34,8.70
2010,05,04,10,35,8.70
2010,05,04,10,36,8.80
2010,05,04,10,37,8.90
2010,05,04,10,38,9.00
2010,05,04,10,39,9.00
2010,05,04,10,40,9.00
2010,05,04,10,41,9.10
2010,05,04,10,42,9.10
2010,05,04,10,43,9.20
2010,05,04,10,44,9.30
2010,05,04,10,45,9.30
2010,05,04,10,46,9.30
2010,05,04,10,47,9.20
2010,05,04,10,48,9.00
2010,05,04,10,49,8.90
2010,05,04,10,50,8.90
2010,05,04,10,51,8.90
2010,05,04,10,52,8.80
2010,05,04,10,53,8.80
2010,05,04,10,54,8.90
2010,05,04,10,55,8.90
2010,05,04,10,56,8.90
2010,05,04,10,57,9.00
2010,05,04,10,58,9.10
2010,05,04,10,59,9.10
2010,05,04,11,00,9.20
2010,05,04,11,01,9.10
2010,05,04,11,02,9.10
2010,05,04,11,03,9.10
2010,05,04,11,04,9.10
2010,05,04,11,05,9.10
2010,05,04,11,06,9.20
2010,05,04,11,07,9.30
2010,05,04,11,08,9.40
2010,05,04,11,09,9.40
2010,05,04,11,10,9.40
2010,05,04,11,11,9.40
2010,05,04,11,12,9.50
2010,05,04,11,13,9.40
2010,05,04,11,14,9.40
2010,05,04,11,15,9.30
2010,05,04,11,16,9.30
2010,05,04,11,17,9.20
2010,05,04,11,18,9.20
2010,05,04,11,19,9.20
2010,05,04,11,20,9.10
2010,05,04,11,21,9.10
2010,05,04,11,22,9.10
2010,05,04,11,23,9.10
2010,05,04,11,24,9.10
2010,05,04,11,25,9.20
2010,05,04,11,26,9.20
2010,05,04,11,27,9.20
2010,05,04,11,28,9.20
2010,05,04,11,29,9.10
2010,05,04,11,30,9.10
2010,05,04,11,31,9.10
2010,05,04,11,32,9.10
2010,05,04,11,33,9.00
2010,05,04,11,34,8.90
2010,05,04,11,35,8.90
2010,05,04,11,36,8.90
2010,05,04,11,37,8.90
2010,05,04,11,38,8.90
2010,05,04,11,39,8.90
2010,05,04,11,40,8.80
2010,05,04,11,41,8.80
2010,05,04,11,42,8.90
2010,05,04,11,43,9.00
2010,05,04,11,44,9.10
2010,05,04,11,45,9.10
2010,05,04,11,46,9.20
2010,05,04,11,47,9.30
2010,05,04,11,48,9.40
2010,05,04,11,49,9.50
2010,05,04,11,50,9.60
2010,05,04,11,51,9.70
2010,05,04,11,52,9.80
2010,05,04,11,53,9.80
2010,05,04,11,54,9.90
2010,05,04,11,55,10.00
2010,05,04,11,56,10.10
2010,05,04,11,57,10.10
2010,05,04,11,58,10.00
2010,05,04,11,59,9.90
2010,05,04,12,00,9.90
2010,05,04,12,01,9.90
2010,05,04,12,02,9.80
2010,05,04,12,03,9.80
2010,05,04,12,04,9.80
2010,05,04,12,05,9.80
2010,05,04,12,06,10.00
2010,05,04,12,07,10.10
2010,05,04,12,08,10.20
2010,05,04,12,09,10.20
2010,05,04,12,10,10.20
2010,05,04,12,11,10.10
2010,05,04,12,12,10.10
2010,05,04,12,13,10.10
2010,05,04,12,14,10.10
2010,05,04,12,15,10.20
2010,05,04,12,16,10.30
2010,05,04,12,17,10.60
2010,05,04,12,18,10.70
2010,05,04,12,19,10.80
2010,05,04,12,20,10.80
2010,05,04,12,21,10.80
2010,05,04,12,22,10.90
2010,05,04,12,23,10.90
2010,05,04,12,24,10.90
2010,05,04,12,25,10.90
2010,05,04,12,26,10.80
2010,05,04,12,27,10.70
2010,05,04,12,28,10.70
2010,05,04,12,29,10.60
2010,05,04,12,30,10.50
2010,05,04,12,31,10.40
2010,05,04,12,32,10.40
2010,05,04,12,33,10.30
2010,05,04,12,34,10.30
2010,05,04,12,35,10.30
2010,05,04,12,36,10.40
2010,05,04,12,37,10.30
2010,05,04,12,38,10.30
2010,05,04,12,39,10.40
2010,05,04,12,40,10.50
2010,05,04,12,41,10.50
2010,05,04,12,42,10.50
2010,05,04,12,43,10.30
2010,05,04,12,44,10.20
2010,05,04,12,45,10.00
2010,05,04,12,46,10.10
2010,05,04,12,47,10.10
2010,05,04,12,48,10.20
2010,05,04,12,49,10.20
2010,05,04,12,50,10.10
2010,05,04,12,51,10.10
2010,05,04,12,52,10.00
2010,05,04,12,53,9.80
2010,05,04,12,54,9.80
2010,05,04,12,55,9.80
2010,05,04,12,56,9.80
2010,05,04,12,57,9.90
2010,05,04,12,58,10.00
2010,05,04,12,59,10.10
2010,05,04,13,00,10.20
2010,05,04,13,01,10.20
2010,05,04,13,02,10.20
2010,05,04,13,03,10.00
2010,05,04,13,04,9.80
2010,05,04,13,05,9.70
2010,05,04,13,06,9.60
2010,05,04,13,07,9.50
2010,05,04,13,08,9.40
2010,05,04,13,09,9.40
2010,05,04,13,10,9.40
2010,05,04,13,11,9.40
2010,05,04,13,12,9.40
2010,05,04,13,13,9.40
2010,05,04,13,14,9.40
2010,05,04,13,15,9.30
2010,05,04,13,16,9.30
2010,05,04,13,17,9.20
2010,05,04,13,18,9.20
2010,05,04,13,19,9.20
2010,05,04,13,20,9.30
2010,05,04,13,21,9.40
2010,05,04,13,22,9.40
2010,05,04,13,23,9.50
2010,05,04,13,24,9.40
2010,05,04,13,25,9.40
2010,05,04,13,26,9.40
2010,05,04,13,27,9.50
2010,05,04,13,28,9.60
2010,05,04,13,29,9.70
2010,05,04,13,30,9.80
2010,05,04,13,31,9.90
2010,05,04,13,32,10.00
2010,05,04,13,33,10.20
2010,05,04,13,34,10.30
2010,05,04,13,35,10.30
2010,05,04,13,36,10.30
2010,05,04,13,37,10.30
2010,05,04,13,38,10.40
2010,05,04,13,39,10.60
2010,05,04,13,40,10.80
2010,05,04,13,41,10.70
2010,05,04,13,42,10.60
2010,05,04,13,43,10.40
2010,05,04,13,44,10.30
2010,05,04,13,45,10.20
2010,05,04,13,46,10.10
2010,05,04,13,47,9.90
2010,05,04,13,48,9.70
2010,05,04,13,49,9.50
2010,05,04,13,50,9.40
2010,05,04,13,51,9.30
2010,05,04,13,52,9.20
2010,05,04,13,53,9.00
2010,05,04,13,54,8.90
2010,05,04,13,55,8.90
2010,05,04,13,56,9.00
2010,05,04,13,57,9.00
2010,05,04,13,58,9.00
2010,05,04,13,59,8.90
2010,05,04,14,00,8.90
2010,05,04,14,01,8.90
2010,05,04,14,02,8.90
2010,05,04,14,03,8.90
2010,05,04,14,04,8.80
2010,05,04,14,05,8.80
2010,05,04,14,06,8.80
2010,05,04,14,07,8.80
2010,05,04,14,08,8.80
2010,05,04,14,09,8.70
2010,05,04,14,10,8.70
2010,05,04,14,11,8.70
2010,05,04,14,12,8.70
2010,05,04,14,13,8.80
2010,05,04,14,14,8.80
2010,05,04,14,15,8.70
2010,05,04,14,16,8.70
2010,05,04,14,17,8.70
2010,05,04,14,18,8.70
2010,05,04,14,19,8.70
2010,05,04,14,20,8.70
2010,05,04,14,21,8.70
2010,05,04,14,22,8.80
2010,05,04,14,23,8.80
2010,05,04,14,24,8.80
2010,05,04,14,25,8.70
2010,05,04,14,26,8.70
2010,05,04,14,27,8.70
2010,05,04,14,28,8.70
2010,05,04,14,29,8.80
2010,05,04,14,30,8.80
2010,05,04,14,31,8.80
2010,05,04,14,32,8.80
2010,05,04,14,33,8.80
2010,05,04,14,34,8.90
2010,05,04,14,35,8.90
2010,05,04,14,36,8.90
2010,05,04,14,37,8.80
2010,05,04,14,38,8.70
2010,05,04,14,39,8.60
2010,05,04,14,40,8.50
2010,05,04,14,41,8.50
2010,05,04,14,42,8.50
2010,05,04,14,43,8.50
2010,05,04,14,44,8.50
2010,05,04,14,45,8.60
2010,05,04,14,46,8.60
2010,05,04,14,47,8.60
2010,05,04,14,48,8.60
2010,05,04,14,49,8.60
2010,05,04,14,50,8.60
2010,05,04,14,51,8.70
2010,05,04,14,52,8.70
2010,05,04,14,53,8.80
2010,05,04,14,54,8.80
2010,05,04,14,55,8.90
2010,05,04,14,56,9.00
2010,05,04,14,57,9.00
2010,05,04,14,58,9.10
2010,05,04,14,59,9.30
2010,05,04,15,00,9.40
2010,05,04,15,01,9.50
2010,05,04,15,02,9.60
2010,05,04,15,03,9.60
2010,05,04,15,04,9.60
2010,05,04,15,05,9.50
2010,05,04,15,06,9.40
2010,05,04,15,07,9.30
2010,05,04,15,08,9.30
2010,05,04,15,09,9.30
2010,05,04,15,10,9.30
2010,05,04,15,11,9.20
2010,05,04,15,12,9.10
2010,05,04,15,13,9.10
2010,05,04,15,14,9.10
2010,05,04,15,15,9.10
2010,05,04,15,16,9.10
2010,05,04,15,17,9.10
2010,05,04,15,18,9.20
2010,05,04,15,19,9.30
2010,05,04,15,20,9.40
2010,05,04,15,21,9.50
2010,05,04,15,22,9.60
2010,05,04,15,23,9.60
2010,05,04,15,24,9.60
2010,05,04,15,25,9.60
2010,05,04,15,26,9.40
2010,05,04,15,27,9.20
2010,05,04,15,28,9.00
2010,05,04,15,29,8.90
2010,05,04,15,30,8.80
2010,05,04,15,31,8.80
2010,05,04,15,32,8.80
2010,05,04,15,33,8.70
2010,05,04,15,34,8.50
2010,05,04,15,35,8.40
2010,05,04,15,36,8.30
2010,05,04,15,37,8.20
2010,05,04,15,38,8.20
2010,05,04,15,39,8.20
2010,05,04,15,40,8.20
2010,05,04,15,41,8.30
2010,05,04,15,42,8.30
2010,05,04,15,43,8.40
2010,05,04,15,44,8.40
2010,05,04,15,45,8.40
2010,05,04,15,46,8.40
2010,05,04,15,47,8.40
2010,05,04,15,48,8.40
2010,05,04,15,49,8.40
2010,05,04,15,50,8.40
2010,05,04,15,51,8.40
2010,05,04,15,52,8.40
2010,05,04,15,53,8.30
2010,05,04,15,54,8.30
2010,05,04,15,55,8.30
2010,05,04,15,56,8.30
2010,05,04,15,57,8.30
2010,05,04,15,58,8.30
2010,05,04,15,59,8.30
2010,05,04,16,00,8.40
2010,05,04,16,01,8.50
2010,05,04,16,02,8.60
2010,05,04,16,03,8.60
2010,05,04,16,04,8.70
2010,05,04,16,05,8.80
2010,05,04,16,06,8.80
2010,05,04,16,07,8.80
2010,05,04,16,08,8.90
2010,05,04,16,09,9.00
2010,05,04,16,10,9.00
2010,05,04,16,11,9.00
2010,05,04,16,12,9.10
2010,05,04,16,13,9.10
2010,05,04,16,14,9.10
2010,05,04,16,15,9.10
2010,05,04,16,16,9.10
2010,05,04,16,17,9.20
2010,05,04,16,18,9.20
2010,05,04,16,19,9.30
2010,05,04,16,20,9.30
2010,05,04,16,21,9.40
2010,05,04,16,22,9.40
2010,05,04,16,23,9.40
2010,05,04,16,24,9.50
2010,05,04,16,25,9.60
2010,05,04,16,26,9.60
2010,05,04,16,27,9.60
2010,05,04,16,28,9.70
2010,05,04,16,29,9.70
2010,05,04,16,30,9.80
2010,05,04,16,31,9.80
2010,05,04,16,32,9.80
2010,05,04,16,33,9.80
2010,05,04,16,34,9.80
2010,05,04,16,35,9.80
2010,05,04,16,36,9.80
2010,05,04,16,37,9.90
2010,05,04,16,38,9.80
2010,05,04,16,39,9.80
2010,05,04,16,40,9.80
2010,05,04,16,41,9.80
2010,05,04,16,42,9.80
2010,05,04,16,43,9.80
2010,05,04,16,44,9.80
2010,05,04,16,45,9.90
2010,05,04,16,46,9.90
2010,05,04,16,47,10.00
2010,05,04,16,48,10.00
2010,05,04,16,49,10.00
2010,05,04,16,50,9.90
2010,05,04,16,51,9.90
2010,05,04,16,52,9.80
2010,05,04,16,53,9.80
2010,05,04,16,54,9.90
2010,05,04,16,55,10.00
2010,05,04,16,56,10.00
2010,05,04,16,57,10.10
2010,05,04,16,58,10.20
2010,05,04,16,59,10.30
2010,05,04,17,00,10.40
2010,05,04,17,01,10.40
2010,05,04,17,02,10.50
2010,05,04,17,03,10.60
2010,05,04,17,04,10.60
2010,05,04,17,05,10.50
2010,05,04,17,06,10.40
2010,05,04,17,07,10.40
2010,05,04,17,08,10.40
2010,05,04,17,09,10.40
2010,05,04,17,10,10.30
2010,05,04,17,11,10.40
2010,05,04,17,12,10.40
2010,05,04,17,13,10.30
2010,05,04,17,14,10.30
2010,05,04,17,15,10.30
2010,05,04,17,16,10.20
2010,05,04,17,17,10.20
2010,05,04,17,18,10.20
2010,05,04,17,19,10.20
2010,05,04,17,20,10.20
2010,05,04,17,21,10.10
2010,05,04,17,22,10.00
2010,05,04,17,23,9.90
2010,05,04,17,24,9.80
2010,05,04,17,25,9.80
2010,05,04,17,26,9.70
2010,05,04,17,27,9.60
2010,05,04,17,28,9.50
2010,05,04,17,29,9.50
2010,05,04,17,30,9.40
2010,05,04,17,31,9.40
2010,05,04,17,32,9.40
2010,05,04,17,33,9.40
2010,05,04,17,34,9.40
2010,05,04,17,35,9.40
2010,05,04,17,36,9.40
2010,05,04,17,37,9.40
2010,05,04,17,38,9.40
2010,05,04,17,39,9.30
2010,05,04,17,40,9.30
2010,05,04,17,41,9.20
2010,05,04,17,42,9.20
2010,05,04,17,43,9.10
2010,05,04,17,44,9.00
2010,05,04,17,45,8.90
2010,05,04,17,46,8.90
2010,05,04,17,47,8.90
2010,05,04,17,48,8.90
2010,05,04,17,49,8.90
2010,05,04,17,50,9.00
2010,05,04,17,51,9.00
2010,05,04,17,52,8.90
2010,05,04,17,53,8.90
2010,05,04,17,54,8.90
2010,05,04,17,55,8.90
2010,05,04,17,56,8.90
2010,05,04,17,57,8.80
2010,05,04,17,58,8.80
2010,05,04,17,59,8.80
2010,05,04,18,00,8.80
2010,05,04,18,01,8.80
2010,05,04,18,02,8.70